Time,TemperatureF,DewpointF,PressureIn,WindDirection,WindDirectionDegrees,WindSpeedMPH,WindSpeedGustMPH,Humidity,HourlyPrecipIn,Conditions,Clouds,dailyrainin,SoftwareType,DateUTC
2013-04-22 00:03:00,37.0,35.8,30.12,NW,315,4.0,5.8,95,0.00,,,-99.99,FreeWX-Wi 1.01,2013-04-22 05:03:00,
2013-04-22 00:13:00,36.9,35.6,30.12,NW,316,3.0,6.3,95,0.00,,,-99.99,FreeWX-Wi 1.01,2013-04-22 05:13:00,
2013-04-22 00:23:00,36.7,35.1,30.12,NW,309,2.0,5.4,94,0.00,,,-99.99,FreeWX-Wi 1.01,2013-04-22 05:23:00,
2013-04-22 00:33:00,36.5,34.9,30.15,NW,307,2.0,6.3,94,0.00,,,-99.99,FreeWX-Wi 1.01,2013-04-22 05:33:00,
2013-04-22 00:43:00,36.3,34.5,30.15,NW,311,2.0,7.6,93,0.00,,,-99.99,FreeWX-Wi 1.01,2013-04-22 05:43:00,
2013-04-22 00:53:00,36.1,34.3,30.15,NW,317,2.0,6.3,93,0.00,,,-99.99,FreeWX-Wi 1.01,2013-04-22 05:53:00,
2013-04-22 01:03:00,36.0,33.8,30.15,NW,326,3.0,5.4,92,0.00,,,-99.99,FreeWX-Wi 1.01,2013-04-22 06:03:00,
2013-04-22 01:13:00,35.8,33.6,30.15,NNW,341,3.0,6.3,92,0.00,,,-99.99,FreeWX-Wi 1.01,2013-04-22 06:13:00,
2013-04-22 01:23:00,35.8,33.6,30.15,North,355,3.0,5.4,92,0.00,,,-99.99,FreeWX-Wi 1.01,2013-04-22 06:23:00,
2013-04-22 01:33:00,35.8,33.4,30.15,North,7,3.0,5.8,91,0.00,,,-99.99,FreeWX-Wi 1.01,2013-04-22 06:33:00,
2013-04-22 01:43:00,35.8,33.4,30.15,North,5,3.0,10.5,91,0.00,,,-99.99,FreeWX-Wi 1.01,2013-04-22 06:43:00,
2013-04-22 01:53:00,35.6,33.3,30.15,North,6,3.0,7.6,91,0.00,,,-99.99,FreeWX-Wi 1.01,2013-04-22 06:53:00,
2013-04-22 02:03:00,35.6,32.9,30.15,North,2,3.0,8.3,90,0.00,,,-99.99,FreeWX-Wi 1.01,2013-04-22 07:03:00,
2013-04-22 02:13:00,35.6,32.9,30.15,North,357,3.0,7.6,90,0.00,,,-99.99,FreeWX-Wi 1.01,2013-04-22 07:13:00,
2013-04-22 02:23:00,35.6,32.7,30.15,North,356,3.0,8.7,89,0.00,,,-99.99,FreeWX-Wi 1.01,2013-04-22 07:23:00,
2013-04-22 02:33:00,35.6,32.7,30.15,North,355,3.0,5.8,89,0.00,,,-99.99,FreeWX-Wi 1.01,2013-04-22 07:33:00,
2013-04-22 02:43:00,35.4,32.5,30.15,North,358,3.0,5.8,89,0.00,,,-99.99,FreeWX-Wi 1.01,2013-04-22 07:43:00,
2013-04-22 02:53:00,35.4,32.5,30.15,North,352,2.0,3.6,89,0.00,,,-99.99,FreeWX-Wi 1.01,2013-04-22 07:53:00,
2013-04-22 03:03:00,35.4,32.5,30.18,NNW,347,1.0,3.6,89,0.00,,,-99.99,FreeWX-Wi 1.01,2013-04-22 08:03:00,
2013-04-22 03:13:00,35.2,32.4,30.15,North,352,1.0,4.9,89,0.00,,,-99.99,FreeWX-Wi 1.01,2013-04-22 08:13:00,
2013-04-22 03:23:00,35.4,32.5,30.15,North,3,2.0,7.6,89,0.00,,,-99.99,FreeWX-Wi 1.01,2013-04-22 08:23:00,
2013-04-22 03:33:00,35.4,32.5,30.15,North,10,3.0,6.3,89,0.00,,,-99.99,FreeWX-Wi 1.01,2013-04-22 08:33:00,
2013-04-22 03:44:00,35.4,32.2,30.15,NNE,14,3.0,4.9,88,0.00,,,-99.99,FreeWX-Wi 1.01,2013-04-22 08:44:00,
2013-04-22 03:54:00,35.4,32.2,30.15,NNE,21,3.0,8.3,88,0.00,,,-99.99,FreeWX-Wi 1.01,2013-04-22 08:54:00,
2013-04-22 04:04:00,35.4,32.2,30.15,NNE,26,3.0,6.3,88,0.00,,,-99.99,FreeWX-Wi 1.01,2013-04-22 09:04:00,
2013-04-22 04:14:00,35.2,31.8,30.15,NNE,14,3.0,5.8,87,0.00,,,-99.99,FreeWX-Wi 1.01,2013-04-22 09:14:00,
2013-04-22 04:24:00,35.2,31.8,30.15,North,9,4.0,7.2,87,0.00,,,-99.99,FreeWX-Wi 1.01,2013-04-22 09:24:00,
2013-04-22 04:34:00,35.1,31.6,30.15,North,3,3.0,6.3,87,0.00,,,-99.99,FreeWX-Wi 1.01,2013-04-22 09:34:00,
2013-04-22 04:44:00,35.1,31.3,30.15,North,1,4.0,8.3,86,0.00,,,-99.99,FreeWX-Wi 1.01,2013-04-22 09:44:00,
2013-04-22 04:54:00,34.9,31.1,30.15,North,1,4.0,5.8,86,0.00,,,-99.99,FreeWX-Wi 1.01,2013-04-22 09:54:00,
2013-04-22 05:04:00,34.9,31.1,30.15,North,6,4.0,6.3,86,0.00,,,-99.99,FreeWX-Wi 1.01,2013-04-22 10:04:00,
2013-04-22 05:14:00,34.9,31.1,30.15,North,7,4.0,8.3,86,0.00,,,-99.99,FreeWX-Wi 1.01,2013-04-22 10:14:00,
2013-04-22 05:24:00,34.9,30.9,30.15,North,9,4.0,7.6,85,0.00,,,-99.99,FreeWX-Wi 1.01,2013-04-22 10:24:00,
2013-04-22 05:34:00,34.9,30.9,30.15,North,11,4.0,7.6,85,0.00,,,-99.99,FreeWX-Wi 1.01,2013-04-22 10:34:00,
2013-04-22 05:44:00,34.9,30.6,30.15,NNE,12,4.0,8.7,84,0.00,,,-99.99,FreeWX-Wi 1.01,2013-04-22 10:44:00,
2013-04-22 05:54:00,34.7,29.8,30.15,NNE,13,4.0,7.2,82,0.00,,,-99.99,FreeWX-Wi 1.01,2013-04-22 10:54:00,
2013-04-22 06:04:00,34.7,29.5,30.18,NNE,15,4.0,6.3,81,0.00,,,-99.99,FreeWX-Wi 1.01,2013-04-22 11:04:00,
2013-04-22 06:14:00,34.5,28.9,30.18,NNE,18,4.0,5.8,80,0.00,,,-99.99,FreeWX-Wi 1.01,2013-04-22 11:14:00,
2013-04-22 06:24:00,34.5,28.4,30.18,NNE,16,4.0,8.7,78,0.00,,,-99.99,FreeWX-Wi 1.01,2013-04-22 11:24:00,
2013-04-22 06:34:00,34.3,27.3,30.18,NNE,16,5.0,10.1,75,0.00,,,-99.99,FreeWX-Wi 1.01,2013-04-22 11:34:00,
2013-04-22 06:44:00,34.5,26.4,30.18,NNE,16,5.0,10.5,72,0.00,,,-99.99,FreeWX-Wi 1.01,2013-04-22 11:44:00,
2013-04-22 06:54:00,34.3,25.2,30.18,NNE,21,6.0,11.0,69,0.00,,,-99.99,FreeWX-Wi 1.01,2013-04-22 11:54:00,
2013-04-22 07:04:00,34.3,23.0,30.18,NNE,23,7.0,13.2,63,0.00,,,-99.99,FreeWX-Wi 1.01,2013-04-22 12:04:00,
2013-04-22 07:14:00,34.3,23.0,30.18,NNE,28,7.0,8.7,63,0.00,,,-99.99,FreeWX-Wi 1.01,2013-04-22 12:14:00,
2013-04-22 07:24:00,34.3,23.4,30.18,NNE,30,6.0,8.7,64,0.00,,,-99.99,FreeWX-Wi 1.01,2013-04-22 12:24:00,
2013-04-22 07:34:00,34.5,23.5,30.15,NNE,33,6.0,9.2,64,0.00,,,-99.99,FreeWX-Wi 1.01,2013-04-22 12:34:00,
2013-04-22 07:44:00,34.9,23.2,30.15,NE,39,6.0,10.1,62,0.00,,,-99.99,FreeWX-Wi 1.01,2013-04-22 12:44:00,
2013-04-22 07:54:00,35.1,22.3,30.15,NE,44,6.0,13.6,59,0.00,,,-99.99,FreeWX-Wi 1.01,2013-04-22 12:54:00,
2013-04-22 08:04:00,35.1,21.0,30.15,NE,49,7.0,13.2,56,0.00,,,-99.99,FreeWX-Wi 1.01,2013-04-22 13:04:00,
2013-04-22 08:14:00,35.1,21.4,30.15,NE,51,7.0,11.0,57,0.00,,,-99.99,FreeWX-Wi 1.01,2013-04-22 13:14:00,
2013-04-22 08:24:00,34.9,20.8,30.15,NE,52,8.0,11.0,56,0.00,,,-99.99,FreeWX-Wi 1.01,2013-04-22 13:24:00,
2013-04-22 08:34:00,35.1,21.7,30.18,NE,52,7.0,10.1,58,0.00,,,-99.99,FreeWX-Wi 1.01,2013-04-22 13:34:00,
2013-04-22 08:44:00,35.2,21.2,30.15,NE,49,7.0,11.0,56,0.00,,,-99.99,FreeWX-Wi 1.01,2013-04-22 13:44:00,
2013-04-22 08:54:00,35.8,22.1,30.15,NE,48,7.0,9.6,57,0.00,,,-99.99,FreeWX-Wi 1.01,2013-04-22 13:54:00,
2013-04-22 09:04:00,36.3,22.6,30.15,NE,52,6.0,10.5,57,0.00,,,-99.99,FreeWX-Wi 1.01,2013-04-22 14:04:00,
2013-04-22 09:14:00,36.3,21.7,30.18,NE,51,6.0,11.0,55,0.00,,,-99.99,FreeWX-Wi 1.01,2013-04-22 14:14:00,
2013-04-22 09:24:00,36.7,22.1,30.18,NE,48,6.0,8.7,55,0.00,,,-99.99,FreeWX-Wi 1.01,2013-04-22 14:24:00,
2013-04-22 09:34:00,36.9,21.4,30.18,NE,46,6.0,11.0,53,0.00,,,-99.99,FreeWX-Wi 1.01,2013-04-22 14:34:00,
2013-04-22 09:44:00,36.9,20.8,30.18,NE,40,6.0,10.5,52,0.00,,,-99.99,FreeWX-Wi 1.01,2013-04-22 14:44:00,
2013-04-22 09:54:00,37.6,22.5,30.18,NE,39,7.0,14.5,54,0.00,,,-99.99,FreeWX-Wi 1.01,2013-04-22 14:54:00,
2013-04-22 10:04:00,38.1,21.6,30.18,NE,37,7.0,11.4,51,0.00,,,-99.99,FreeWX-Wi 1.01,2013-04-22 15:04:00,
2013-04-22 10:14:00,38.7,22.1,30.18,NE,35,7.0,12.8,51,0.00,,,-99.99,FreeWX-Wi 1.01,2013-04-22 15:14:00,
2013-04-22 10:24:00,38.8,21.4,30.18,NE,36,7.0,12.3,49,0.00,,,-99.99,FreeWX-Wi 1.01,2013-04-22 15:24:00,
2013-04-22 10:34:00,39.4,22.8,30.18,NE,35,7.0,11.0,51,0.00,,,-99.99,FreeWX-Wi 1.01,2013-04-22 15:34:00,
2013-04-22 10:44:00,39.6,21.9,30.18,NE,35,7.0,10.1,49,0.00,,,-99.99,FreeWX-Wi 1.01,2013-04-22 15:44:00,
2013-04-22 10:54:00,39.2,21.2,30.18,NNE,29,7.0,15.4,48,0.00,,,-99.99,FreeWX-Wi 1.01,2013-04-22 15:54:00,
2013-04-22 11:04:00,39.2,21.7,30.18,NNE,29,7.0,11.9,49,0.00,,,-99.99,FreeWX-Wi 1.01,2013-04-22 16:04:00,
2013-04-22 11:14:00,38.8,19.8,30.18,NNE,32,8.0,13.6,46,0.00,,,-99.99,FreeWX-Wi 1.01,2013-04-22 16:14:00,
2013-04-22 11:24:00,38.8,19.4,30.18,NE,36,8.0,13.6,45,0.00,,,-99.99,FreeWX-Wi 1.01,2013-04-22 16:24:00,
2013-04-22 11:34:00,38.8,19.8,30.15,NE,41,9.0,13.2,46,0.00,,,-99.99,FreeWX-Wi 1.01,2013-04-22 16:34:00,
2013-04-22 11:44:00,39.2,21.2,30.15,NE,44,9.0,13.2,48,0.00,,,-99.99,FreeWX-Wi 1.01,2013-04-22 16:44:00,
2013-04-22 11:54:00,40.1,20.5,30.15,NE,46,9.0,13.2,45,0.00,,,-99.99,FreeWX-Wi 1.01,2013-04-22 16:54:00,
2013-04-22 12:04:00,40.3,19.6,30.15,NE,47,9.0,15.9,43,0.00,,,-99.99,FreeWX-Wi 1.01,2013-04-22 17:04:00,
2013-04-22 12:14:00,40.1,19.9,30.15,NE,51,8.0,14.5,44,0.00,,,-99.99,FreeWX-Wi 1.01,2013-04-22 17:14:00,
2013-04-22 12:24:00,39.6,18.9,30.15,NE,47,9.0,13.6,43,0.00,,,-99.99,FreeWX-Wi 1.01,2013-04-22 17:24:00,
2013-04-22 12:34:00,39.2,18.7,30.15,NE,45,9.0,15.9,43,0.00,,,-99.99,FreeWX-Wi 1.01,2013-04-22 17:34:00,
2013-04-22 12:44:00,39.4,18.1,30.12,NE,44,9.0,17.4,42,0.00,,,-99.99,FreeWX-Wi 1.01,2013-04-22 17:44:00,
2013-04-22 12:54:00,39.2,18.1,30.12,NE,50,9.0,15.4,42,0.00,,,-99.99,FreeWX-Wi 1.01,2013-04-22 17:54:00,
2013-04-22 13:04:00,39.0,18.0,30.12,NE,54,9.0,17.0,42,0.00,,,-99.99,FreeWX-Wi 1.01,2013-04-22 18:04:00,
2013-04-22 13:14:00,38.8,18.9,30.12,ENE,57,8.0,13.2,44,0.00,,,-99.99,FreeWX-Wi 1.01,2013-04-22 18:14:00,
2013-04-22 13:24:00,38.7,18.7,30.12,NE,53,8.0,10.5,44,0.00,,,-99.99,FreeWX-Wi 1.01,2013-04-22 18:24:00,
2013-04-22 13:34:00,38.7,18.7,30.15,NE,44,7.0,13.2,44,0.00,,,-99.99,FreeWX-Wi 1.01,2013-04-22 18:34:00,
2013-04-22 13:44:00,38.1,19.2,30.15,NNE,32,7.0,11.4,46,0.00,,,-99.99,FreeWX-Wi 1.01,2013-04-22 18:44:00,
2013-04-22 13:54:00,37.2,20.8,30.15,NNE,25,7.0,15.4,51,0.00,,,-99.99,FreeWX-Wi 1.01,2013-04-22 18:54:00,
2013-04-22 14:04:00,36.7,22.1,30.12,NNE,21,8.0,12.8,55,0.00,,,-99.99,FreeWX-Wi 1.01,2013-04-22 19:04:00,
2013-04-22 14:14:00,36.3,23.0,30.15,NNE,23,8.0,15.0,58,0.00,,,-99.99,FreeWX-Wi 1.01,2013-04-22 19:14:00,
2013-04-22 14:24:00,36.7,24.1,30.15,NNE,21,9.0,16.8,60,0.00,,,-99.99,FreeWX-Wi 1.01,2013-04-22 19:24:00,
2013-04-22 14:35:00,36.1,25.5,30.12,NNE,20,9.0,15.9,65,0.00,,,-99.99,FreeWX-Wi 1.01,2013-04-22 19:35:00,
2013-04-22 14:45:00,35.8,27.0,30.12,NNE,17,9.0,17.0,70,0.00,,,-99.99,FreeWX-Wi 1.01,2013-04-22 19:45:00,
2013-04-22 14:55:00,35.4,27.7,30.12,NNE,15,10.0,17.0,73,0.00,,,-99.99,FreeWX-Wi 1.01,2013-04-22 19:55:00,
2013-04-22 15:05:00,35.1,27.9,30.12,NNE,17,10.0,18.3,75,0.00,,,-99.99,FreeWX-Wi 1.01,2013-04-22 20:05:00,
2013-04-22 15:15:00,34.9,28.8,30.12,NNE,23,10.0,17.0,78,0.00,,,-99.99,FreeWX-Wi 1.01,2013-04-22 20:15:00,
2013-04-22 15:25:00,34.7,28.6,30.12,NNE,25,10.0,15.4,78,0.00,,,-99.99,FreeWX-Wi 1.01,2013-04-22 20:25:00,
2013-04-22 15:35:00,34.3,28.2,30.12,NNE,28,10.0,25.1,78,0.00,,,-99.99,FreeWX-Wi 1.01,2013-04-22 20:35:00,
2013-04-22 15:45:00,34.2,28.0,30.12,NNE,31,11.0,21.0,78,0.00,,,-99.99,FreeWX-Wi 1.01,2013-04-22 20:45:00,
2013-04-22 15:55:00,34.0,27.9,30.12,NNE,33,13.0,22.4,78,0.00,,,-99.99,FreeWX-Wi 1.01,2013-04-22 20:55:00,
2013-04-22 16:05:00,33.8,28.6,30.09,NE,34,13.0,20.6,81,0.00,,,-99.99,FreeWX-Wi 1.01,2013-04-22 21:05:00,
2013-04-22 16:15:00,33.6,29.8,30.09,NE,35,12.0,17.4,86,0.00,,,-99.99,FreeWX-Wi 1.01,2013-04-22 21:15:00,
2013-04-22 16:25:00,33.6,30.4,30.09,NNE,32,10.0,16.8,88,0.00,,,-99.99,FreeWX-Wi 1.01,2013-04-22 21:25:00,
2013-04-22 16:35:00,33.3,30.7,30.09,NNE,29,9.0,13.6,90,0.00,,,-99.99,FreeWX-Wi 1.01,2013-04-22 21:35:00,
2013-04-22 16:45:00,33.3,31.5,30.12,NNE,25,8.0,12.3,93,0.00,,,-99.99,FreeWX-Wi 1.01,2013-04-22 21:45:00,
2013-04-22 16:55:00,33.1,31.5,30.12,NNE,19,7.0,9.2,94,0.00,,,-99.99,FreeWX-Wi 1.01,2013-04-22 21:55:00,
2013-04-22 17:05:00,33.1,32.0,30.12,NNE,15,6.0,10.5,96,0.00,,,-99.99,FreeWX-Wi 1.01,2013-04-22 22:05:00,
2013-04-22 17:15:00,33.1,32.4,30.12,NNE,13,6.0,11.0,97,0.00,,,-99.99,FreeWX-Wi 1.01,2013-04-22 22:15:00,
2013-04-22 17:25:00,32.9,32.9,30.12,NNE,16,7.0,13.6,100,0.00,,,-99.99,FreeWX-Wi 1.01,2013-04-22 22:25:00,
2013-04-22 17:35:00,32.9,32.9,30.12,NNE,16,7.0,13.6,100,0.00,,,-99.99,FreeWX-Wi 1.01,2013-04-22 22:35:00,
2013-04-22 17:45:00,32.7,32.7,30.12,NNE,14,6.0,11.9,100,0.00,,,-99.99,FreeWX-Wi 1.01,2013-04-22 22:45:00,
2013-04-22 17:55:00,32.7,32.7,30.12,North,10,6.0,12.8,100,0.00,,,-99.99,FreeWX-Wi 1.01,2013-04-22 22:55:00,
2013-04-22 18:05:00,32.7,32.7,30.12,North,11,7.0,15.4,100,0.00,,,-99.99,FreeWX-Wi 1.01,2013-04-22 23:05:00,
2013-04-22 18:15:00,32.7,32.7,30.12,NNE,13,8.0,15.0,100,0.00,,,-99.99,FreeWX-Wi 1.01,2013-04-22 23:15:00,
2013-04-22 18:25:00,32.7,32.7,30.12,NNE,13,8.0,15.0,100,0.00,,,-99.99,FreeWX-Wi 1.01,2013-04-22 23:25:00,
2013-04-22 18:35:00,32.5,32.5,30.12,NNE,12,8.0,15.4,100,0.00,,,-99.99,FreeWX-Wi 1.01,2013-04-22 23:35:00,
2013-04-22 18:45:00,32.5,32.5,30.12,North,10,7.0,15.0,100,0.00,,,-99.99,FreeWX-Wi 1.01,2013-04-22 23:45:00,
2013-04-22 18:55:00,32.5,32.5,30.12,North,11,7.0,12.8,100,0.00,,,-99.99,FreeWX-Wi 1.01,2013-04-22 23:55:00,
2013-04-22 19:05:00,32.5,32.5,30.12,North,10,6.0,11.4,100,0.00,,,-99.99,FreeWX-Wi 1.01,2013-04-23 00:05:00,
2013-04-22 19:15:00,32.5,32.5,30.12,North,10,4.0,0.0,100,0.00,,,-99.99,FreeWX-Wi 1.01,2013-04-23 00:15:00,
2013-04-22 19:25:00,32.5,32.5,30.12,North,10,1.0,0.0,100,0.00,,,-99.99,FreeWX-Wi 1.01,2013-04-23 00:25:00,
2013-04-22 19:35:00,32.5,32.5,30.12,North,-999,0.0,0.0,100,0.00,,,-99.99,FreeWX-Wi 1.01,2013-04-23 00:35:00,
2013-04-22 19:45:00,32.5,32.5,30.12,North,-999,0.0,0.0,100,0.00,,,-99.99,FreeWX-Wi 1.01,2013-04-23 00:45:00,
2013-04-22 19:55:00,32.5,32.5,30.12,North,-999,0.0,0.0,100,0.00,,,-99.99,FreeWX-Wi 1.01,2013-04-23 00:55:00,
2013-04-22 20:05:00,32.4,32.4,30.12,North,-999,0.0,0.0,100,0.00,,,-99.99,FreeWX-Wi 1.01,2013-04-23 01:05:00,
2013-04-22 20:15:00,32.4,32.4,30.12,North,-999,0.0,0.0,100,0.00,,,-99.99,FreeWX-Wi 1.01,2013-04-23 01:15:00,
2013-04-22 21:23:00,32.2,32.2,30.12,North,-999,0.0,0.0,100,0.00,,,-99.99,FreeWX-Wi 1.01,2013-04-23 02:23:00,
2013-04-22 21:33:00,32.0,32.0,30.12,North,-999,0.0,0.0,100,0.00,,,-99.99,FreeWX-Wi 1.01,2013-04-23 02:33:00,
2013-04-22 21:43:00,32.0,32.0,30.15,North,-999,0.0,0.0,100,0.00,,,-99.99,FreeWX-Wi 1.01,2013-04-23 02:43:00,
2013-04-22 21:53:00,31.8,31.8,30.15,North,-999,0.0,0.0,100,0.00,,,-99.99,FreeWX-Wi 1.01,2013-04-23 02:53:00,
2013-04-22 22:03:00,31.8,31.8,30.15,North,-999,0.0,0.0,100,0.00,,,-99.99,FreeWX-Wi 1.01,2013-04-23 03:03:00,
2013-04-22 22:13:00,31.8,31.8,30.15,North,-999,0.0,0.0,100,0.00,,,-99.99,FreeWX-Wi 1.01,2013-04-23 03:13:00,
2013-04-22 22:23:00,31.8,31.8,30.15,North,-999,0.0,0.0,100,0.00,,,-99.99,FreeWX-Wi 1.01,2013-04-23 03:23:00,
2013-04-22 22:33:00,31.8,31.8,30.15,North,-999,0.0,0.0,100,0.00,,,-99.99,FreeWX-Wi 1.01,2013-04-23 03:33:00,
2013-04-22 22:43:00,31.8,31.8,30.15,North,-999,0.0,0.0,100,0.00,,,-99.99,FreeWX-Wi 1.01,2013-04-23 03:43:00,
2013-04-22 22:53:00,31.8,31.8,30.15,North,-999,0.0,0.0,100,0.00,,,-99.99,FreeWX-Wi 1.01,2013-04-23 03:53:00,
2013-04-22 23:03:00,31.6,31.6,30.15,North,-999,0.0,0.0,100,0.00,,,-99.99,FreeWX-Wi 1.01,2013-04-23 04:03:00,
2013-04-22 23:13:00,31.6,31.6,30.15,North,-999,0.0,0.0,100,0.00,,,-99.99,FreeWX-Wi 1.01,2013-04-23 04:13:00,
2013-04-22 23:23:00,31.6,31.6,30.15,North,-999,0.0,0.0,100,0.00,,,-99.99,FreeWX-Wi 1.01,2013-04-23 04:23:00,
2013-04-22 23:33:00,31.6,31.6,30.15,North,-999,0.0,0.0,100,0.00,,,-99.99,FreeWX-Wi 1.01,2013-04-23 04:33:00,
2013-04-22 23:43:00,31.6,31.6,30.15,North,-999,0.0,0.0,100,0.00,,,-99.99,FreeWX-Wi 1.01,2013-04-23 04:43:00,
2013-04-22 23:53:00,31.6,31.6,30.15,North,-999,0.0,0.0,100,0.00,,,-99.99,FreeWX-Wi 1.01,2013-04-23 04:53:00,